Tracking 20232 objects as of 19-Jan-2020
HD Live streaming from Space Station
objects crossing your sky now

COSMOS 2354

Track COSMOS 2354 now!
10-day predictions
COSMOS 2354 is classified as:


NORAD ID: 25365
Int'l Code: 1998-036C
Perigee: 1,314.3 km
Apogee: 1,877.7 km
Inclination: 82.6 °
Period: 118.0 minutes
Semi major axis: 7967 km
RCS: 0.9905 m2 (medium)
Launch date: June 15, 1998
Source: Commonwealth of Independent States (former USSR) (CIS)
Launch site: PLESETSK MISSILE AND SPACE COMPLEX (PKMTR)

Satellites have a single simultaneous earth-space and space-earth channel.
aabbcc
Your satellite tracking list
Your tracking list is empty




NASA's NSSDC Master Catalog

Two Line Element Set (TLE):
1 25365U 98036C   20018.84119149  .00000020  00000-0  60125-4 0  9995
2 25365  82.5842 291.9300 0353610 116.7539 311.6878 12.20839214962368
Source of the keplerian elements: AFSPC